| time (UTC) | temp F | wind direction | speed MPH | gust MPH | rain 1hr in | rain 24hr in | rain mn in | humidity % | barometer mb |
| 20260831132130 | 82 | 336 | 1.0 | 3.0 | 0.00 | 0.11 | 0.00 | 89 | 1013.6 |
| 20260831131630 | 82 | 323 | 1.0 | 3.0 | 0.00 | 0.11 | 0.00 | 89 | 1013.6 |
| 20260831131504 | 82 | 348 | 1.0 | 3.0 | 0.00 | 0.11 | 0.00 | 89 | 1013.4 |
| 20260831131131 | 82 | 344 | 0.0 | 3.0 | 0.00 | 0.11 | 0.00 | 90 | 1013.6 |
| 20260831130631 | 82 | 28 | 0.0 | 2.0 | 0.00 | 0.11 | 0.00 | 90 | 1013.6 |
| 20260831130130 | 81 | 338 | 0.0 | 2.0 | 0.00 | 0.11 | 0.00 | 90 | 1013.6 |
| 20260831130039 | 81 | 338 | 0.0 | 2.0 | 0.00 | 0.11 | 0.00 | 90 | 1013.4 |
| 20260831125630 | 81 | 40 | 0.0 | 2.0 | 0.00 | 0.11 | 0.00 | 91 | 1013.6 |
| 20260831125131 | 80 | 306 | 0.0 | 2.0 | 0.00 | 0.11 | 0.00 | 91 | 1013.6 |
| 20260831124631 | 80 | 330 | 1.0 | 2.0 | 0.00 | 0.11 | 0.00 | 92 | 1013.4 |
| 20260831124544 | 79 | 330 | 0.0 | 2.0 | 0.00 | 0.11 | 0.00 | 92 | 1013.3 |
| 20260831124132 | 80 | 327 | 0.0 | 3.0 | 0.00 | 0.11 | 0.00 | 92 | 1013.4 |
| 20260831123629 | 79 | 15 | 0.0 | 3.0 | 0.00 | 0.11 | 0.00 | 92 | 1013.4 |
| 20260831123421 | 79 | 345 | 0.0 | 1.0 | 0.00 | 0.11 | 0.00 | 92 | 1013.1 |
| 20260831123004 | 79 | 345 | 0.0 | 1.0 | 0.00 | 0.11 | 0.00 | 92 | 1013.0 |
| 20260831122630 | 79 | 344 | 0.0 | 1.0 | 0.00 | 0.11 | 0.00 | 92 | 1013.1 |
| 20260831122130 | 79 | 344 | 0.0 | 1.0 | 0.00 | 0.11 | 0.00 | 92 | 1013.1 |
| 20260831121629 | 78 | 344 | 0.0 | 1.0 | 0.00 | 0.11 | 0.00 | 93 | 1013.0 |
| 20260831121554 | 78 | 344 | 0.0 | 1.0 | 0.00 | 0.11 | 0.00 | 93 | 1012.9 |
| 20260831121129 | 78 | 344 | 0.0 | 1.0 | 0.00 | 0.11 | 0.00 | 93 | 1013.0 |
| 20260831120630 | 78 | 344 | 0.0 | 2.0 | 0.00 | 0.11 | 0.00 | 93 | 1013.0 |
| 20260831120131 | 78 | 344 | 0.0 | 2.0 | 0.00 | 0.11 | 0.00 | 93 | 1012.7 |
| 20260831120037 | 77 | 344 | 0.0 | 2.0 | 0.00 | 0.11 | 0.00 | 93 | 1012.6 |
| 20260831115630 | 77 | 348 | 0.0 | 1.0 | 0.00 | 0.11 | 0.00 | 93 | 1012.7 |
| 20260831115129 | 77 | 348 | 0.0 | 1.0 | 0.00 | 0.11 | 0.00 | 93 | 1012.7 |
| 20260831114629 | 77 | 348 | 0.0 | 1.0 | 0.00 | 0.11 | 0.00 | 93 | 1012.5 |
| 20260831114514 | 77 | 348 | 0.0 | 1.0 | 0.00 | 0.11 | 0.00 | 93 | 1012.4 |
| 20260831114218 | 77 | 348 | 0.0 | 1.0 | 0.00 | 0.11 | 0.00 | 93 | 1012.5 |
| 20260831114201 | 77 | 348 | 0.0 | 1.0 | 0.00 | 0.11 | 0.00 | 93 | 1012.5 |
| 20260831113129 | 77 | 347 | 0.0 | 1.0 | 0.00 | 0.11 | 0.00 | 93 | 1012.5 |
| 20260831113005 | 76 | 347 | 0.0 | 1.0 | 0.00 | 0.11 | 0.00 | 93 | 1012.4 |
| 20260831112630 | 77 | 348 | 0.0 | 1.0 | 0.00 | 0.11 | 0.00 | 93 | 1012.5 |
| 20260831112130 | 76 | 348 | 0.0 | 1.0 | 0.00 | 0.11 | 0.00 | 93 | 1012.5 |
| 20260831111630 | 76 | 348 | 0.0 | 2.0 | 0.00 | 0.11 | 0.00 | 93 | 1012.2 |
| 20260831111545 | 76 | 348 | 0.0 | 2.0 | 0.00 | 0.11 | 0.00 | 93 | 1012.1 |
| 20260831111413 | 76 | 347 | 0.0 | 2.0 | 0.00 | 0.11 | 0.00 | 93 | 1012.2 |
| 20260831110621 | 76 | 355 | 0.0 | 2.0 | 0.00 | 0.11 | 0.00 | 93 | 1012.2 |
| 20260831110405 | 76 | 9 | 0.0 | 0.0 | 0.00 | 0.11 | 0.00 | 93 | 1012.1 |
| 20260831110033 | 76 | 9 | 0.0 | 0.0 | 0.00 | 0.11 | 0.00 | 93 | 1012.0 |
| 20260831105621 | 76 | 9 | 0.0 | 0.0 | 0.00 | 0.11 | 0.00 | 93 | 1012.1 |
| 20260831105118 | 76 | 9 | 0.0 | 1.0 | 0.00 | 0.11 | 0.00 | 93 | 1012.1 |
| 20260831104904 | 76 | 9 | 0.0 | 1.0 | 0.00 | 0.11 | 0.00 | 93 | 1012.0 |
| 20260831104531 | 75 | 9 | 0.0 | 1.0 | 0.00 | 0.11 | 0.00 | 93 | 1011.9 |
| 20260831104115 | 76 | 9 | 0.0 | 1.0 | 0.00 | 0.11 | 0.00 | 93 | 1012.0 |
| 20260831103613 | 76 | 9 | 0.0 | 0.0 | 0.00 | 0.11 | 0.00 | 93 | 1012.0 |
| 20260831103110 | 76 | 9 | 0.0 | 0.0 | 0.00 | 0.11 | 0.00 | 93 | 1012.0 |
| 20260831103029 | 75 | 9 | 0.0 | 0.0 | 0.00 | 0.11 | 0.00 | 93 | 1011.9 |
| 20260831102609 | 76 | 9 | 0.0 | 0.0 | 0.00 | 0.11 | 0.00 | 93 | 1012.0 |
| 20260831102107 | 76 | 9 | 0.0 | 1.0 | 0.00 | 0.11 | 0.00 | 92 | 1012.0 |
| 20260831101849 | 76 | 9 | 0.0 | 1.0 | 0.00 | 0.11 | 0.00 | 92 | 1011.8 |
| 20260831101510 | 76 | 9 | 0.0 | 1.0 | 0.00 | 0.11 | 0.00 | 92 | 1011.7 |
| 20260831101102 | 76 | 9 | 0.0 | 1.0 | 0.00 | 0.11 | 0.00 | 92 | 1011.8 |
| 20260831100603 | 76 | 9 | 0.0 | 1.0 | 0.00 | 0.11 | 0.00 | 92 | 1011.8 |
| 20260831100103 | 76 | 9 | 0.0 | 1.0 | 0.00 | 0.11 | 0.00 | 92 | 1011.7 |
| 20260831100004 | 76 | 9 | 0.0 | 1.0 | 0.00 | 0.11 | 0.00 | 92 | 1011.6 |
| 20260831095602 | 76 | 10 | 0.0 | 1.0 | 0.00 | 0.11 | 0.00 | 92 | 1011.7 |
| 20260831095102 | 76 | 10 | 0.0 | 0.0 | 0.00 | 0.11 | 0.00 | 92 | 1011.7 |
| 20260831094602 | 76 | 10 | 0.0 | 1.0 | 0.00 | 0.11 | 0.00 | 92 | 1011.7 |
| 20260831094550 | 76 | 10 | 0.0 | 1.0 | 0.00 | 0.11 | 0.00 | 92 | 1011.6 |
| 20260831094100 | 76 | 10 | 1.0 | 2.0 | 0.00 | 0.11 | 0.00 | 92 | 1011.7 |
| 20260831093602 | 76 | 338 | 0.0 | 2.0 | 0.00 | 0.11 | 0.00 | 92 | 1011.7 |
| 20260831093101 | 76 | 343 | 0.0 | 1.0 | 0.00 | 0.11 | 0.00 | 92 | 1011.6 |
| 20260831093043 | 76 | 343 | 0.0 | 1.0 | 0.00 | 0.11 | 0.00 | 92 | 1011.5 |
| 20260831092852 | 76 | 343 | 0.0 | 0.0 | 0.00 | 0.11 | 0.00 | 92 | 1011.6 |
| 20260831092100 | 77 | 343 | 0.0 | 0.0 | 0.00 | 0.11 | 0.00 | 92 | 1011.6 |
| 20260831091848 | 76 | 343 | 0.0 | 0.0 | 0.00 | 0.11 | 0.00 | 92 | 1012.0 |
| 20260831091520 | 76 | 343 | 0.0 | 0.0 | 0.00 | 0.11 | 0.00 | 92 | 1011.9 |
| 20260831091102 | 77 | 343 | 0.0 | 0.0 | 0.00 | 0.11 | 0.00 | 92 | 1012.0 |
| 20260831090849 | 77 | 343 | 0.0 | 0.0 | 0.00 | 0.11 | 0.00 | 92 | 1012.0 |
| 20260831090054 | 76 | 343 | 0.0 | 0.0 | 0.00 | 0.11 | 0.00 | 92 | 1012.0 |
| 20260831085858 | 77 | 343 | 0.0 | 0.0 | 0.00 | 0.11 | 0.00 | 92 | 1012.1 |
| 20260831085102 | 77 | 343 | 0.0 | 0.0 | 0.00 | 0.11 | 0.00 | 92 | 1012.1 |
| 20260831084600 | 77 | 343 | 0.0 | 0.0 | 0.00 | 0.11 | 0.00 | 92 | 1012.1 |
| 20260831084531 | 76 | 343 | 0.0 | 0.0 | 0.00 | 0.11 | 0.00 | 92 | 1012.0 |
| 20260831084100 | 77 | 343 | 0.0 | 0.0 | 0.00 | 0.11 | 0.00 | 92 | 1012.1 |
| 20260831083602 | 77 | 343 | 0.0 | 1.0 | 0.00 | 0.11 | 0.00 | 92 | 1012.1 |
| 20260831083146 | 77 | 343 | 0.0 | 1.0 | 0.00 | 0.11 | 0.00 | 92 | 1012.2 |
| 20260831083132 | 77 | 343 | 0.0 | 1.0 | 0.00 | 0.11 | 0.00 | 92 | 1012.2 |
| 20260831083114 | 76 | 343 | 0.0 | 1.0 | 0.00 | 0.11 | 0.00 | 92 | 1012.1 |
| 20260831082101 | 77 | 343 | 0.0 | 0.0 | 0.00 | 0.11 | 0.00 | 91 | 1012.2 |
| 20260831081602 | 77 | 343 | 0.0 | 0.0 | 0.00 | 0.11 | 0.00 | 91 | 1012.0 |
| 20260831081509 | 76 | 343 | 0.0 | 0.0 | 0.00 | 0.11 | 0.00 | 91 | 1011.9 |
| 20260831081101 | 77 | 343 | 0.0 | 0.0 | 0.00 | 0.11 | 0.00 | 91 | 1012.0 |
| 20260831080603 | 77 | 343 | 0.0 | 0.0 | 0.00 | 0.11 | 0.00 | 91 | 1012.0 |
| 20260831080005 | 76 | 343 | 0.0 | 0.0 | 0.00 | 0.11 | 0.00 | 91 | 1012.1 |
| 20260831075604 | 77 | 343 | 0.0 | 0.0 | 0.00 | 0.11 | 0.00 | 91 | 1012.2 |
| 20260831075102 | 77 | 343 | 0.0 | 0.0 | 0.00 | 0.11 | 0.00 | 91 | 1012.2 |
| 20260831074603 | 77 | 343 | 0.0 | 1.0 | 0.00 | 0.11 | 0.00 | 91 | 1012.2 |
| 20260831074503 | 76 | 343 | 0.0 | 1.0 | 0.00 | 0.11 | 0.00 | 91 | 1012.1 |
| 20260831074103 | 77 | 343 | 0.0 | 1.0 | 0.00 | 0.11 | 0.00 | 91 | 1012.2 |
| 20260831073604 | 77 | 343 | 0.0 | 2.0 | 0.00 | 0.11 | 0.00 | 91 | 1012.2 |
| 20260831073103 | 76 | 343 | 0.0 | 2.0 | 0.00 | 0.11 | 0.00 | 91 | 1012.4 |
| 20260831072600 | 77 | 105 | 0.0 | 0.0 | 0.00 | 0.11 | 0.00 | 90 | 1012.5 |
| 20260831072358 | 77 | 105 | 0.0 | 1.0 | 0.00 | 0.11 | 0.00 | 90 | 1012.5 |
| 20260831071600 | 77 | 105 | 0.0 | 1.0 | 0.00 | 0.11 | 0.00 | 90 | 1012.6 |
| 20260831071557 | 76 | 105 | 0.0 | 1.0 | 0.00 | 0.11 | 0.00 | 90 | 1012.4 |
| 20260831071103 | 77 | 105 | 0.0 | 0.0 | 0.00 | 0.11 | 0.00 | 90 | 1012.6 |
| 20260831070858 | 77 | 105 | 0.0 | 1.0 | 0.00 | 0.11 | 0.00 | 90 | 1012.6 |
| 20260831070352 | 77 | 105 | 0.0 | 1.0 | 0.00 | 0.11 | 0.00 | 90 | 1012.4 |
| 20260831070032 | 77 | 105 | 0.0 | 1.0 | 0.00 | 0.11 | 0.00 | 90 | 1012.3 |
| 20260831065601 | 77 | 105 | 0.0 | 1.0 | 0.00 | 0.11 | 0.00 | 90 | 1012.4 |
| 20260831065101 | 77 | 106 | 0.0 | 2.0 | 0.00 | 0.11 | 0.00 | 90 | 1012.4 |
| 20260831064602 | 78 | 106 | 1.0 | 2.0 | 0.00 | 0.11 | 0.00 | 90 | 1012.5 |
| 20260831064534 | 77 | 106 | 0.0 | 2.0 | 0.00 | 0.11 | 0.00 | 90 | 1012.4 |
| 20260831064102 | 78 | 91 | 1.0 | 2.0 | 0.00 | 0.11 | 0.00 | 90 | 1012.5 |
| 20260831063548 | 78 | 88 | 0.0 | 1.0 | 0.00 | 0.11 | 0.00 | 91 | 1012.5 |
| 20260831063333 | 78 | 78 | 0.0 | 0.0 | 0.00 | 0.11 | 0.00 | 90 | 1012.5 |
| 20260831063025 | 77 | 78 | 0.0 | 0.0 | 0.00 | 0.11 | 0.00 | 90 | 1012.3 |
| 20260831062539 | 78 | 78 | 0.0 | 0.0 | 0.00 | 0.11 | 0.00 | 90 | 1012.5 |
| 20260831062037 | 78 | 78 | 0.0 | 1.0 | 0.00 | 0.11 | 0.00 | 90 | 1012.5 |
| 20260831061536 | 78 | 78 | 0.0 | 1.0 | 0.00 | 0.11 | 0.00 | 90 | 1012.7 |
| 20260831061507 | 78 | 78 | 0.0 | 1.0 | 0.00 | 0.11 | 0.00 | 90 | 1012.6 |
| 20260831061034 | 78 | 78 | 0.0 | 2.0 | 0.00 | 0.11 | 0.00 | 90 | 1012.7 |
| 20260831060534 | 78 | 78 | 1.0 | 2.0 | 0.00 | 0.11 | 0.00 | 90 | 1012.7 |
| 20260831060034 | 78 | 85 | 1.0 | 2.0 | 0.00 | 0.11 | 0.00 | 90 | 1013.0 |
| 20260831060004 | 78 | 93 | 0.0 | 2.0 | 0.00 | 0.11 | 0.00 | 90 | 1012.9 |
| 20260831055534 | 78 | 91 | 2.0 | 5.0 | 0.00 | 0.11 | 0.00 | 90 | 1013.0 |
| 20260831055332 | 79 | 94 | 3.0 | 5.0 | 0.00 | 0.11 | 0.00 | 90 | 1013.0 |
| 20260831054530 | 78 | 122 | 1.0 | 4.0 | 0.00 | 0.11 | 0.00 | 90 | 1013.1 |
| 20260831054505 | 78 | 111 | 2.0 | 4.0 | 0.00 | 0.11 | 0.00 | 90 | 1013.0 |
| 20260831054029 | 78 | 140 | 0.0 | 2.0 | 0.00 | 0.11 | 0.00 | 91 | 1013.1 |
| 20260831053530 | 78 | 107 | 0.0 | 1.0 | 0.00 | 0.11 | 0.00 | 91 | 1013.1 |
| 20260831053030 | 78 | 107 | 0.0 | 2.0 | 0.00 | 0.11 | 0.00 | 91 | 1013.5 |
| 20260831053016 | 78 | 104 | 0.0 | 2.0 | 0.00 | 0.11 | 0.00 | 91 | 1013.3 |
| 20260831052530 | 78 | 101 | 1.0 | 5.0 | 0.00 | 0.11 | 0.00 | 91 | 1013.5 |
| 20260831052030 | 78 | 115 | 2.0 | 5.0 | 0.00 | 0.11 | 0.00 | 91 | 1013.5 |
| 20260831051530 | 78 | 82 | 2.0 | 5.0 | 0.00 | 0.11 | 0.00 | 91 | 1013.4 |
| 20260831051504 | 78 | 82 | 1.0 | 5.0 | 0.00 | 0.11 | 0.00 | 91 | 1013.3 |
| 20260831051030 | 78 | 92 | 1.0 | 5.0 | 0.00 | 0.11 | 0.00 | 92 | 1013.4 |
| 20260831050529 | 78 | 76 | 1.0 | 5.0 | 0.00 | 0.11 | 0.00 | 92 | 1013.4 |
| 20260831050052 | 77 | 101 | 0.0 | 0.0 | 0.00 | 0.11 | 0.00 | 92 | 1013.3 |
| 20260831050030 | 78 | 96 | 0.0 | 0.0 | 0.00 | 0.11 | 0.00 | 92 | 1013.5 |
| 20260831045822 | 77 | 23 | 0.0 | 0.0 | 0.00 | 0.11 | 0.00 | 91 | 1013.5 |
| 20260831045030 | 77 | 23 | 0.0 | 0.0 | 0.00 | 0.11 | 0.00 | 91 | 1013.5 |
| 20260831044535 | 77 | 23 | 0.0 | 0.0 | 0.00 | 0.11 | 0.00 | 91 | 1013.4 |
| 20260831044531 | 77 | 23 | 0.0 | 0.0 | 0.00 | 0.11 | 0.00 | 91 | 1013.5 |
| 20260831044030 | 77 | 23 | 0.0 | 0.0 | 0.00 | 0.11 | 0.00 | 91 | 1013.5 |
| 20260831043612 | 77 | 23 | 0.0 | 0.0 | 0.00 | 0.11 | 0.00 | 91 | 1013.6 |
| 20260831043556 | 77 | 23 | 0.0 | 0.0 | 0.00 | 0.11 | 0.00 | 91 | 1013.5 |
| 20260831042536 | 77 | 23 | 0.0 | 0.0 | 0.00 | 0.11 | 0.00 | 91 | 1013.6 |
| 20260831042030 | 77 | 23 | 0.0 | 0.0 | 0.00 | 0.11 | 0.00 | 91 | 1013.6 |
| 20260831041639 | 77 | 23 | 0.0 | 0.0 | 0.00 | 0.11 | 0.00 | 91 | 1013.5 |
| 20260831041032 | 77 | 23 | 0.0 | 0.0 | 0.00 | 0.11 | 0.00 | 91 | 1013.6 |
| 20260831040530 | 78 | 23 | 0.0 | 0.0 | 0.00 | 0.11 | 0.00 | 91 | 1013.6 |
| 20260831040030 | 78 | 23 | 0.0 | 0.0 | 0.00 | 0.11 | 0.00 | 91 | 1013.7 |
| 20260831040018 | 77 | 23 | 0.0 | 0.0 | 0.00 | 0.11 | 0.11 | 91 | 1013.6 |
| 20260831035527 | 78 | 23 | 0.0 | 0.0 | 0.00 | 0.11 | 0.11 | 91 | 1013.7 |
| 20260831035025 | 78 | 23 | 0.0 | 0.0 | 0.00 | 0.11 | 0.11 | 91 | 1013.7 |
| 20260831034524 | 78 | 23 | 0.0 | 0.0 | 0.00 | 0.11 | 0.11 | 91 | 1013.8 |
| 20260831034505 | 77 | 23 | 0.0 | 0.0 | 0.00 | 0.11 | 0.11 | 91 | 1013.7 |
| 20260831034021 | 78 | 23 | 0.0 | 0.0 | 0.00 | 0.11 | 0.11 | 91 | 1013.8 |
| 20260831033624 | 78 | 23 | 0.0 | 0.0 | 0.00 | 0.11 | 0.11 | 91 | 1013.8 |
| 20260831033552 | 78 | 23 | 0.0 | 0.0 | 0.00 | 0.11 | 0.11 | 91 | 1013.8 |
| 20260831032520 | 77 | 23 | 0.0 | 0.0 | 0.00 | 0.11 | 0.11 | 90 | 1013.8 |
| 20260831032018 | 78 | 23 | 0.0 | 0.0 | 0.00 | 0.11 | 0.11 | 90 | 1013.8 |
| 20260831031805 | 78 | 23 | 0.0 | 0.0 | 0.00 | 0.11 | 0.11 | 90 | 1013.6 |
| 20260831031014 | 78 | 23 | 0.0 | 0.0 | 0.00 | 0.11 | 0.11 | 90 | 1013.6 |
| 20260831030505 | 78 | 23 | 0.0 | 0.0 | 0.00 | 0.11 | 0.11 | 90 | 1013.6 |
| 20260831030018 | 77 | 23 | 0.0 | 0.0 | 0.00 | 0.11 | 0.11 | 90 | 1013.5 |
| 20260831030004 | 78 | 23 | 0.0 | 0.0 | 0.00 | 0.11 | 0.11 | 90 | 1013.6 |
| 20260831025502 | 78 | 23 | 0.0 | 0.0 | 0.00 | 0.11 | 0.11 | 90 | 1013.6 |
| 20260831025002 | 78 | 23 | 0.0 | 0.0 | 0.00 | 0.11 | 0.11 | 90 | 1013.6 |
| 20260831024747 | 78 | 23 | 0.0 | 0.0 | 0.00 | 0.11 | 0.11 | 90 | 1013.6 |
| 20260831024004 | 78 | 23 | 0.0 | 0.0 | 0.00 | 0.11 | 0.11 | 90 | 1013.6 |
| 20260831023501 | 78 | 23 | 0.0 | 0.0 | 0.00 | 0.11 | 0.11 | 90 | 1013.6 |
| 20260831023044 | 78 | 23 | 0.0 | 0.0 | 0.00 | 0.11 | 0.11 | 90 | 1013.4 |
| 20260831023002 | 78 | 23 | 0.0 | 1.0 | 0.00 | 0.11 | 0.11 | 90 | 1013.6 |
| 20260831022751 | 78 | 23 | 0.0 | 1.0 | 0.00 | 0.11 | 0.11 | 90 | 1013.6 |
| 20260831022003 | 78 | 23 | 0.0 | 1.0 | 0.00 | 0.11 | 0.11 | 89 | 1013.6 |
| 20260831021751 | 78 | 23 | 0.0 | 1.0 | 0.00 | 0.11 | 0.11 | 89 | 1013.6 |
| 20260831021251 | 78 | 23 | 0.0 | 1.0 | 0.00 | 0.11 | 0.11 | 89 | 1013.6 |
| 20260831020502 | 78 | 23 | 0.0 | 1.0 | 0.00 | 0.11 | 0.11 | 89 | 1013.6 |
| 20260831020021 | 78 | 23 | 0.0 | 1.0 | 0.00 | 0.11 | 0.11 | 89 | 1013.4 |
| 20260831020001 | 78 | 23 | 0.0 | 1.0 | 0.00 | 0.11 | 0.11 | 89 | 1013.6 |
| 20260831015500 | 78 | 23 | 0.0 | 1.0 | 0.00 | 0.11 | 0.11 | 89 | 1013.6 |
| 20260831015004 | 79 | 24 | 0.0 | 1.0 | 0.00 | 0.11 | 0.11 | 89 | 1013.6 |
| 20260831014508 | 78 | 24 | 0.0 | 2.0 | 0.00 | 0.11 | 0.11 | 89 | 1013.5 |
| 20260831014503 | 79 | 24 | 0.0 | 2.0 | 0.00 | 0.11 | 0.11 | 89 | 1013.6 |
| 20260831014248 | 79 | 24 | 0.0 | 2.0 | 0.00 | 0.11 | 0.11 | 89 | 1013.6 |
| 20260831013748 | 79 | 61 | 0.0 | 1.0 | 0.00 | 0.11 | 0.11 | 89 | 1013.6 |
| 20260831013008 | 78 | 61 | 0.0 | 1.0 | 0.00 | 0.11 | 0.11 | 89 | 1013.6 |
| 20260831013003 | 79 | 61 | 0.0 | 1.0 | 0.00 | 0.11 | 0.11 | 89 | 1013.7 |
| 20260831012503 | 79 | 61 | 0.0 | 1.0 | 0.00 | 0.11 | 0.11 | 89 | 1013.7 |
| 20260831012004 | 79 | 61 | 0.0 | 1.0 | 0.00 | 0.11 | 0.11 | 89 | 1013.7 |
| 20260831011750 | 79 | 61 | 0.0 | 1.0 | 0.00 | 0.11 | 0.11 | 88 | 1013.7 |
| 20260831011004 | 79 | 61 | 0.0 | 0.0 | 0.00 | 0.11 | 0.11 | 88 | 1013.7 |
| 20260831010504 | 79 | 64 | 0.0 | 1.0 | 0.00 | 0.11 | 0.11 | 88 | 1013.7 |
| 20260831010008 | 79 | 94 | 0.0 | 1.0 | 0.00 | 0.11 | 0.11 | 88 | 1013.6 |
| 20260831010004 | 79 | 94 | 0.0 | 1.0 | 0.00 | 0.11 | 0.11 | 88 | 1013.5 |
| 20260831005746 | 79 | 98 | 0.0 | 1.0 | 0.00 | 0.11 | 0.11 | 88 | 1013.6 |
| 20260831005001 | 80 | 98 | 0.0 | 1.0 | 0.00 | 0.11 | 0.11 | 88 | 1013.6 |
| 20260831004547 | 79 | 98 | 0.0 | 1.0 | 0.00 | 0.11 | 0.11 | 88 | 1013.4 |
| 20260831004503 | 80 | 98 | 0.0 | 1.0 | 0.00 | 0.11 | 0.11 | 88 | 1013.5 |
| 20260831004002 | 80 | 98 | 0.0 | 1.0 | 0.00 | 0.11 | 0.11 | 88 | 1013.5 |
| 20260831003501 | 80 | 98 | 1.0 | 2.0 | 0.00 | 0.11 | 0.11 | 87 | 1013.5 |
| 20260831003034 | 80 | 98 | 1.0 | 2.0 | 0.00 | 0.11 | 0.11 | 88 | 1013.4 |
| 20260831003001 | 80 | 98 | 1.0 | 2.0 | 0.00 | 0.11 | 0.11 | 88 | 1013.6 |
| 20260831002502 | 80 | 85 | 1.0 | 3.0 | 0.00 | 0.11 | 0.11 | 87 | 1013.6 |
| 20260831002001 | 80 | 97 | 1.0 | 3.0 | 0.00 | 0.11 | 0.11 | 87 | 1013.6 |
| 20260831001531 | 80 | 88 | 1.0 | 3.0 | 0.00 | 0.11 | 0.11 | 87 | 1013.3 |
| 20260831001502 | 80 | 92 | 1.0 | 2.0 | 0.00 | 0.11 | 0.11 | 87 | 1013.4 |
| 20260831001048 | 81 | 78 | 1.0 | 2.0 | 0.00 | 0.11 | 0.11 | 87 | 1013.4 |
| 20260831001033 | 81 | 96 | 1.0 | 2.0 | 0.00 | 0.11 | 0.11 | 87 | 1013.4 |
| 20260831000012 | 80 | 88 | 0.0 | 2.0 | 0.00 | 0.11 | 0.11 | 87 | 1013.0 |
| 20260831000002 | 81 | 88 | 1.0 | 2.0 | 0.00 | 0.11 | 0.11 | 87 | 1013.1 |
| 20260830235502 | 81 | 89 | 1.0 | 5.0 | 0.00 | 0.11 | 0.11 | 87 | 1013.1 |
| 20260830235005 | 81 | 95 | 1.0 | 5.0 | 0.00 | 0.11 | 0.11 | 87 | 1013.1 |
| 20260830234508 | 81 | 88 | 1.0 | 3.0 | 0.00 | 0.11 | 0.11 | 87 | 1013.0 |
| 20260830234502 | 81 | 88 | 1.0 | 3.0 | 0.00 | 0.11 | 0.11 | 87 | 1013.1 |
| 20260830234002 | 81 | 80 | 1.0 | 3.0 | 0.00 | 0.11 | 0.11 | 87 | 1013.1 |
| 20260830233502 | 81 | 75 | 1.0 | 3.0 | 0.00 | 0.11 | 0.11 | 86 | 1013.1 |
| 20260830233010 | 81 | 102 | 1.0 | 2.0 | 0.00 | 0.11 | 0.11 | 87 | 1012.6 |
| 20260830233005 | 82 | 102 | 1.0 | 2.0 | 0.00 | 0.11 | 0.11 | 87 | 1012.7 |
| 20260830232503 | 82 | 98 | 1.0 | 2.0 | 0.00 | 0.11 | 0.11 | 87 | 1012.7 |
| 20260830232002 | 82 | 86 | 1.0 | 6.0 | 0.00 | 0.11 | 0.11 | 86 | 1012.7 |
| 20260830231751 | 82 | 84 | 3.0 | 6.0 | 0.00 | 0.11 | 0.11 | 86 | 1012.6 |
| 20260830231003 | 82 | 108 | 3.0 | 6.0 | 0.00 | 0.11 | 0.11 | 86 | 1012.6 |
| 20260830230503 | 82 | 132 | 3.0 | 6.0 | 0.00 | 0.11 | 0.11 | 86 | 1012.6 |
| 20260830230009 | 82 | 92 | 2.0 | 4.0 | 0.00 | 0.13 | 0.11 | 86 | 1012.5 |
| 20260830230003 | 82 | 105 | 2.0 | 5.0 | 0.00 | 0.11 | 0.11 | 86 | 1012.6 |
| 20260830225503 | 82 | 79 | 2.0 | 5.0 | 0.00 | 0.11 | 0.11 | 85 | 1012.6 |
| 20260830225003 | 82 | 84 | 2.0 | 5.0 | 0.00 | 0.11 | 0.11 | 85 | 1012.6 |
| 20260830224509 | 82 | 87 | 1.0 | 5.0 | 0.00 | 0.13 | 0.11 | 85 | 1012.8 |
| 20260830224504 | 82 | 87 | 3.0 | 6.0 | 0.00 | 0.12 | 0.11 | 85 | 1012.9 |
| 20260830224002 | 83 | 88 | 3.0 | 6.0 | 0.00 | 0.12 | 0.11 | 85 | 1012.9 |
| 20260830223503 | 83 | 83 | 3.0 | 6.0 | 0.00 | 0.12 | 0.11 | 85 | 1012.9 |
| 20260830223007 | 82 | 76 | 1.0 | 8.0 | 0.00 | 0.13 | 0.11 | 85 | 1012.9 |
| 20260830223002 | 83 | 76 | 3.0 | 8.0 | 0.00 | 0.12 | 0.11 | 85 | 1013.0 |
| 20260830222830 | 83 | 82 | 4.0 | 8.0 | 0.00 | 0.13 | 0.11 | 85 | 1013.0 |
| 20260830222004 | 83 | 82 | 3.0 | 7.0 | 0.00 | 0.13 | 0.11 | 85 | 1013.0 |
| 20260830221512 | 83 | 107 | 2.0 | 8.0 | 0.00 | 0.13 | 0.11 | 84 | 1012.9 |
| 20260830221503 | 83 | 107 | 3.0 | 8.0 | 0.00 | 0.13 | 0.11 | 84 | 1013.0 |
| 20260830221002 | 84 | 86 | 3.0 | 8.0 | 0.00 | 0.13 | 0.11 | 84 | 1013.0 |
| 20260830220502 | 84 | 80 | 2.0 | 6.0 | 0.00 | 0.13 | 0.11 | 85 | 1013.0 |
| 20260830220008 | 84 | 96 | 2.0 | 6.0 | 0.00 | 0.14 | 0.11 | 84 | 1012.8 |
| 20260830220003 | 84 | 96 | 3.0 | 6.0 | 0.00 | 0.13 | 0.11 | 84 | 1012.9 |
| 20260830215756 | 84 | 76 | 3.0 | 8.0 | 0.00 | 0.13 | 0.11 | 84 | 1012.9 |
| 20260830215005 | 84 | 78 | 3.0 | 8.0 | 0.00 | 0.14 | 0.11 | 82 | 1012.9 |
| 20260830214506 | 84 | 84 | 3.0 | 7.0 | 0.00 | 0.14 | 0.11 | 82 | 1012.4 |
| 20260830214502 | 85 | 84 | 3.0 | 7.0 | 0.00 | 0.14 | 0.11 | 82 | 1012.6 |
| 20260830214003 | 85 | 68 | 3.0 | 8.0 | 0.00 | 0.14 | 0.11 | 83 | 1012.6 |
| 20260830213504 | 86 | 105 | 3.0 | 8.0 | 0.00 | 0.14 | 0.11 | 81 | 1012.6 |
| 20260830213012 | 85 | 126 | 3.0 | 8.0 | 0.00 | 0.14 | 0.11 | 79 | 1012.4 |
| 20260830213003 | 86 | 126 | 4.0 | 9.0 | 0.00 | 0.14 | 0.11 | 79 | 1012.6 |
| 20260830212504 | 86 | 130 | 6.0 | 9.0 | 0.00 | 0.14 | 0.11 | 78 | 1012.6 |
| 20260830212002 | 86 | 134 | 6.0 | 10.0 | 0.00 | 0.14 | 0.11 | 78 | 1012.6 |
| 20260830211754 | 86 | 82 | 5.0 | 10.0 | 0.00 | 0.14 | 0.11 | 78 | 1012.7 |
| 20260830211004 | 86 | 122 | 6.0 | 11.0 | 0.00 | 0.14 | 0.11 | 78 | 1012.7 |
| 20260830210502 | 86 | 94 | 5.0 | 11.0 | 0.00 | 0.14 | 0.11 | 78 | 1012.7 |
| 20260830210018 | 86 | 134 | 4.0 | 10.0 | 0.00 | 0.18 | 0.11 | 79 | 1012.7 |
| 20260830210002 | 86 | 134 | 5.0 | 10.0 | 0.00 | 0.14 | 0.11 | 79 | 1012.8 |
| 20260830205548 | 86 | 79 | 6.0 | 9.0 | 0.00 | 0.15 | 0.11 | 79 | 1012.8 |
| 20260830205535 | 86 | 128 | 6.0 | 9.0 | 0.00 | 0.15 | 0.11 | 79 | 1012.8 |
| 20260830204508 | 86 | 89 | 5.0 | 9.0 | 0.00 | 0.18 | 0.11 | 78 | 1012.5 |
| 20260830204503 | 86 | 98 | 5.0 | 9.0 | 0.00 | 0.16 | 0.11 | 78 | 1012.6 |
| 20260830204002 | 87 | 105 | 4.0 | 10.0 | 0.00 | 0.16 | 0.11 | 79 | 1012.6 |
| 20260830203756 | 87 | 67 | 4.0 | 10.0 | 0.00 | 0.16 | 0.11 | 79 | 1012.6 |
| 20260830203009 | 86 | 76 | 2.0 | 7.0 | 0.00 | 0.18 | 0.11 | 78 | 1012.9 |
| 20260830203003 | 86 | 76 | 3.0 | 7.0 | 0.00 | 0.17 | 0.11 | 78 | 1013.0 |
| 20260830202504 | 86 | 87 | 3.0 | 9.0 | 0.00 | 0.17 | 0.11 | 79 | 1013.0 |
| 20260830202004 | 86 | 110 | 3.0 | 9.0 | 0.00 | 0.17 | 0.11 | 78 | 1013.0 |
| 20260830201756 | 86 | 57 | 4.0 | 8.0 | 0.00 | 0.17 | 0.11 | 79 | 1013.1 |
| 20260830201004 | 86 | 132 | 3.0 | 8.0 | 0.00 | 0.17 | 0.11 | 79 | 1013.1 |
| 20260830200502 | 86 | 119 | 1.0 | 7.0 | 0.00 | 0.17 | 0.11 | 80 | 1013.1 |
| 20260830200010 | 86 | 76 | 1.0 | 5.0 | 0.00 | 0.25 | 0.11 | 80 | 1013.0 |
| 20260830200005 | 86 | 76 | 2.0 | 6.0 | 0.00 | 0.18 | 0.11 | 80 | 1013.1 |
| 20260830195503 | 86 | 78 | 2.0 | 6.0 | 0.00 | 0.19 | 0.11 | 79 | 1013.1 |
| 20260830195253 | 86 | 28 | 2.0 | 7.0 | 0.00 | 0.21 | 0.11 | 81 | 1013.1 |
| 20260830194754 | 86 | 82 | 2.0 | 7.0 | 0.00 | 0.25 | 0.11 | 80 | 1013.1 |
| 20260830194004 | 85 | 108 | 2.0 | 6.0 | 0.00 | 0.25 | 0.11 | 80 | 1013.1 |
| 20260830193503 | 86 | 92 | 1.0 | 3.0 | 0.00 | 0.25 | 0.11 | 80 | 1013.1 |
| 20260830193016 | 85 | 355 | 1.0 | 7.0 | 0.00 | 0.25 | 0.11 | 81 | 1013.4 |
| 20260830193005 | 85 | 355 | 2.0 | 7.0 | 0.00 | 0.25 | 0.11 | 81 | 1013.5 |
| 20260830192752 | 85 | 131 | 2.0 | 7.0 | 0.00 | 0.25 | 0.11 | 80 | 1013.5 |
| 20260830192004 | 86 | 136 | 0.0 | 2.0 | 0.00 | 0.25 | 0.11 | 80 | 1013.5 |
| 20260830191517 | 85 | 153 | 0.0 | 3.0 | 0.00 | 0.25 | 0.11 | 81 | 1013.0 |
| 20260830191506 | 85 | 153 | 1.0 | 3.0 | 0.00 | 0.25 | 0.11 | 81 | 1013.2 |
| 20260830191300 | 84 | 121 | 2.0 | 5.0 | 0.00 | 0.25 | 0.11 | 80 | 1013.2 |
| 20260830190505 | 84 | 69 | 2.0 | 5.0 | 0.00 | 0.25 | 0.11 | 81 | 1013.2 |
| 20260830190254 | 85 | 122 | 1.0 | 4.0 | 0.00 | 0.25 | 0.11 | 81 | 1013.4 |
| 20260830185503 | 84 | 114 | 2.0 | 5.0 | 0.00 | 0.25 | 0.11 | 83 | 1013.4 |
| 20260830185002 | 84 | 119 | 2.0 | 9.0 | 0.00 | 0.25 | 0.11 | 83 | 1013.4 |
| 20260830184508 | 84 | 13 | 2.0 | 9.0 | 0.00 | 0.25 | 0.11 | 84 | 1013.5 |
| 20260830184502 | 84 | 13 | 2.0 | 9.0 | 0.00 | 0.25 | 0.11 | 84 | 1013.7 |
| 20260830184002 | 84 | 76 | 2.0 | 4.0 | 0.00 | 0.25 | 0.11 | 83 | 1013.7 |
| 20260830183504 | 84 | 49 | 2.0 | 5.0 | 0.00 | 0.25 | 0.11 | 83 | 1013.7 |
| 20260830183007 | 84 | 30 | 1.0 | 5.0 | 0.00 | 0.25 | 0.11 | 83 | 1013.9 |
| 20260830183002 | 84 | 30 | 2.0 | 5.0 | 0.00 | 0.25 | 0.11 | 83 | 1014.0 |
| 20260830182504 | 84 | 5 | 2.0 | 5.0 | 0.00 | 0.25 | 0.11 | 84 | 1014.0 |
| 20260830182248 | 83 | 336 | 2.0 | 5.0 | 0.00 | 0.25 | 0.11 | 85 | 1014.0 |
| 20260830181508 | 82 | 71 | 1.0 | 8.0 | 0.00 | 0.25 | 0.11 | 85 | 1014.1 |
| 20260830181503 | 82 | 69 | 2.0 | 8.0 | 0.00 | 0.25 | 0.11 | 85 | 1014.2 |
| 20260830181004 | 82 | 71 | 3.0 | 8.0 | 0.00 | 0.25 | 0.11 | 85 | 1014.2 |
| 20260830180503 | 82 | 76 | 3.0 | 7.0 | 0.00 | 0.25 | 0.11 | 87 | 1014.2 |
| 20260830180250 | 81 | 327 | 2.0 | 8.0 | 0.00 | 0.25 | 0.11 | 87 | 1014.6 |
| 20260830175503 | 81 | 68 | 3.0 | 8.0 | 0.00 | 0.25 | 0.11 | 87 | 1014.6 |
| 20260830175002 | 81 | 30 | 3.0 | 11.0 | 0.00 | 0.25 | 0.11 | 88 | 1014.6 |
| 20260830174512 | 80 | 309 | 1.0 | 11.0 | 0.00 | 0.25 | 0.11 | 87 | 1014.5 |
| 20260830174503 | 81 | 333 | 3.0 | 11.0 | 0.00 | 0.25 | 0.11 | 87 | 1014.7 |
| 20260830174003 | 80 | 59 | 3.0 | 7.0 | 0.00 | 0.25 | 0.11 | 87 | 1014.7 |
| 20260830173505 | 80 | 20 | 3.0 | 8.0 | 0.00 | 0.25 | 0.11 | 88 | 1014.7 |
| 20260830173008 | 80 | 347 | 2.0 | 8.0 | 0.00 | 0.25 | 0.11 | 88 | 1014.7 |
| 20260830173002 | 80 | 347 | 3.0 | 8.0 | 0.00 | 0.25 | 0.11 | 88 | 1014.9 |
| 20260830172503 | 80 | 58 | 3.0 | 8.0 | 0.00 | 0.25 | 0.11 | 89 | 1014.9 |
| 20260830172003 | 80 | 302 | 3.0 | 8.0 | 0.00 | 0.25 | 0.11 | 88 | 1014.9 |
| 20260830171507 | 80 | 44 | 3.0 | 7.0 | 0.00 | 0.25 | 0.11 | 89 | 1014.6 |
| 20260830171502 | 80 | 44 | 3.0 | 7.0 | 0.00 | 0.25 | 0.11 | 89 | 1014.7 |
| 20260830171002 | 80 | 339 | 3.0 | 7.0 | 0.01 | 0.25 | 0.11 | 90 | 1014.7 |
| 20260830170502 | 80 | 323 | 2.0 | 8.0 | 0.01 | 0.25 | 0.11 | 91 | 1014.7 |
| 20260830170011 | 79 | 20 | 2.0 | 8.0 | 0.01 | 0.25 | 0.11 | 91 | 1015.3 |
| 20260830170001 | 79 | 20 | 3.0 | 8.0 | 0.01 | 0.25 | 0.11 | 91 | 1015.5 |
| 20260830165504 | 79 | 41 | 3.0 | 8.0 | 0.01 | 0.25 | 0.11 | 91 | 1015.5 |
| 20260830164959 | 79 | 70 | 2.0 | 8.0 | 0.01 | 0.25 | 0.11 | 92 | 1015.5 |
| 20260830164502 | 78 | 36 | 1.0 | 6.0 | 0.01 | 0.25 | 0.11 | 92 | 1015.1 |
| 20260830164442 | 79 | 340 | 2.0 | 6.0 | 0.01 | 0.25 | 0.11 | 92 | 1015.3 |
| 20260830163932 | 79 | 331 | 2.0 | 6.0 | 0.02 | 0.25 | 0.11 | 92 | 1015.3 |
| 20260830163520 | 78 | 13 | 1.0 | 6.0 | 0.06 | 0.25 | 0.11 | 92 | 1015.6 |
| 20260830163502 | 78 | 9 | 2.0 | 6.0 | 0.04 | 0.25 | 0.11 | 92 | 1015.3 |
| 20260830163145 | 78 | 24 | 2.0 | 6.0 | 0.06 | 0.25 | 0.11 | 92 | 1015.5 |
| 20260830162429 | 78 | 37 | 1.0 | 4.0 | 0.08 | 0.25 | 0.11 | 92 | 1015.6 |
| 20260830161930 | 78 | 346 | 1.0 | 6.0 | 0.11 | 0.25 | 0.11 | 92 | 1015.6 |
| 20260830161714 | 77 | 51 | 2.0 | 6.0 | 0.11 | 0.25 | 0.11 | 92 | 1015.7 |
| 20260830161644 | 77 | 85 | 0.0 | 6.0 | 0.11 | 0.25 | 0.11 | 92 | 1015.6 |
| 20260830160930 | 78 | 34 | 2.0 | 6.0 | 0.10 | 0.24 | 0.10 | 91 | 1015.7 |
| 20260830160431 | 78 | 55 | 2.0 | 6.0 | 0.10 | 0.24 | 0.10 | 91 | 1015.7 |
| 20260830160220 | 78 | 61 | 1.0 | 5.0 | 0.10 | 0.24 | 0.10 | 91 | 1015.3 |
| 20260830160156 | 78 | 76 | 1.0 | 5.0 | 0.10 | 0.24 | 0.10 | 91 | 1015.1 |
| 20260830155431 | 78 | 338 | 1.0 | 4.0 | 0.10 | 0.24 | 0.10 | 91 | 1015.3 |
| 20260830155220 | 78 | 323 | 1.0 | 5.0 | 0.10 | 0.24 | 0.10 | 91 | 1015.3 |
| 20260830154513 | 78 | 33 | 1.0 | 7.0 | 0.10 | 0.24 | 0.10 | 90 | 1015.1 |
| 20260830154430 | 78 | 10 | 3.0 | 15.0 | 0.10 | 0.24 | 0.10 | 90 | 1015.2 |
| 20260830153930 | 79 | 69 | 7.0 | 15.0 | 0.09 | 0.23 | 0.09 | 89 | 1015.2 |
| 20260830153722 | 80 | 90 | 9.0 | 18.0 | 0.07 | 0.21 | 0.07 | 88 | 1015.2 |
| 20260830153003 | 80 | 126 | 8.0 | 18.0 | 0.05 | 0.19 | 0.05 | 88 | 1015.0 |
| 20260830152929 | 80 | 88 | 8.0 | 18.0 | 0.05 | 0.19 | 0.05 | 87 | 1015.2 |
| 20260830152429 | 82 | 101 | 4.0 | 15.0 | 0.03 | 0.17 | 0.02 | 86 | 1015.2 |
| 20260830152222 | 83 | 133 | 2.0 | 8.0 | 0.00 | 0.14 | 0.00 | 88 | 1015.2 |
| 20260830151503 | 83 | 105 | 2.0 | 8.0 | 0.00 | 0.14 | 0.00 | 87 | 1014.5 |
| 20260830151429 | 83 | 77 | 3.0 | 8.0 | 0.00 | 0.14 | 0.00 | 87 | 1014.7 |
| 20260830150930 | 84 | 75 | 3.0 | 8.0 | 0.00 | 0.14 | 0.00 | 86 | 1014.7 |
| 20260830150429 | 85 | 85 | 1.0 | 8.0 | 0.00 | 0.14 | 0.00 | 84 | 1014.7 |
| 20260830150005 | 86 | 118 | 0.0 | 2.0 | 0.00 | 0.14 | 0.00 | 84 | 1014.5 |
| 20260830145931 | 86 | 118 | 0.0 | 3.0 | 0.00 | 0.14 | 0.00 | 83 | 1014.6 |
| 20260830145429 | 86 | 196 | 1.0 | 3.0 | 0.00 | 0.14 | 0.00 | 84 | 1014.6 |
| 20260830144928 | 86 | 192 | 1.0 | 3.0 | 0.00 | 0.14 | 0.00 | 84 | 1014.6 |
| 20260830144504 | 86 | 246 | 0.0 | 2.0 | 0.00 | 0.14 | 0.00 | 84 | 1014.4 |
| 20260830144430 | 86 | 238 | 0.0 | 2.0 | 0.00 | 0.14 | 0.00 | 84 | 1014.5 |
| 20260830143929 | 86 | 96 | 1.0 | 2.0 | 0.00 | 0.14 | 0.00 | 83 | 1014.5 |
| 20260830143430 | 87 | 217 | 1.0 | 4.0 | 0.00 | 0.14 | 0.00 | 83 | 1014.5 |
| 20260830143106 | 86 | 211 | 0.0 | 4.0 | 0.00 | 0.14 | 0.00 | 83 | 1014.5 |
| 20260830142926 | 87 | 213 | 1.0 | 4.0 | 0.00 | 0.14 | 0.00 | 82 | 1014.7 |
| 20260830142412 | 87 | 208 | 1.0 | 5.0 | 0.00 | 0.14 | 0.00 | 84 | 1014.7 |
| 20260830141908 | 87 | 223 | 2.0 | 7.0 | 0.00 | 0.14 | 0.00 | 85 | 1014.7 |
| 20260830141543 | 86 | 234 | 1.0 | 7.0 | 0.00 | 0.14 | 0.00 | 86 | 1014.5 |
| 20260830141408 | 86 | 227 | 2.0 | 7.0 | 0.00 | 0.14 | 0.00 | 86 | 1014.7 |
| 20260830140908 | 85 | 126 | 1.0 | 6.0 | 0.00 | 0.14 | 0.00 | 86 | 1014.7 |
| 20260830140405 | 85 | 227 | 1.0 | 6.0 | 0.00 | 0.14 | 0.00 | 87 | 1014.7 |
| 20260830140033 | 84 | 217 | 1.0 | 6.0 | 0.00 | 0.14 | 0.00 | 87 | 1014.5 |
| 20260830135904 | 84 | 199 | 1.0 | 6.0 | 0.00 | 0.14 | 0.00 | 87 | 1014.7 |
| 20260830135404 | 84 | 103 | 0.0 | 2.0 | 0.00 | 0.14 | 0.00 | 88 | 1014.7 |
| 20260830134904 | 84 | 131 | 0.0 | 1.0 | 0.00 | 0.14 | 0.00 | 89 | 1014.7 |
| 20260830134654 | 83 | 180 | 0.0 | 1.0 | 0.00 | 0.14 | 0.00 | 90 | 1014.7 |
| 20260830134618 | 83 | 119 | 0.0 | 1.0 | 0.00 | 0.14 | 0.00 | 90 | 1014.5 |
| 20260830133940 | 83 | 92 | 0.0 | 1.0 | 0.00 | 0.14 | 0.00 | 91 | 1014.7 |
| 20260830133930 | 83 | 92 | 0.0 | 1.0 | 0.00 | 0.14 | 0.00 | 90 | 1014.7 |
| 20260830133150 | 82 | 120 | 0.0 | 2.0 | 0.00 | 0.14 | 0.00 | 92 | 1014.6 |
| 20260830133116 | 82 | 92 | 0.0 | 1.0 | 0.00 | 0.14 | 0.00 | 91 | 1014.5 |